Location: Les Chemineaux
(47.3024°N, 1.5104°E)
Time: 21:17:43
(UTC+00:00)

ARIANE 6 FM1 Upper Stage - Pass Details

Date: 19 May 2025
Orbit: 531 x 610 km, 62.0° (Epoch: 18 June)

Event Time Altitude Azimuth Distance (km) Brightness Sun altitude
Rises 20:16:38 0° 207° (SSW) 2,661 6.0 -7.4°
Reaches altitude 10° 20:18:51 10° 203° (SSW) 1,773 5.0 -7.7°
Maximum altitude 20:22:43 52° 127° (SE) 670 2.7 -8.2°
Drops below altitude 10° 20:26:38 10° 51° (NE) 1,796 5.2 -8.7°
Sets 20:28:53 0° 46° (NE) 2,699 6.1 -8.9°
